Hourly Weather Rawicz

Today, 11 August, Tuesday

Time Temperature Precipitation Wind Pressure Humidity
00:00 +23°C° 0 mm 2 mps 755 mmHg 74%
01:00 +21°C° 0 mm 2 mps 755 mmHg 77%
02:00 +21°C° 0 mm 2 mps 755 mmHg 79%
03:00 +20°C° 0 mm 2 mps 755 mmHg 81%
04:00 +20°C° 0 mm 2 mps 755 mmHg 82%
05:00 +21°C° 0 mm 3 mps 755 mmHg 80%
06:00 +21°C° 0 mm 3 mps 755 mmHg 79%
07:00 +22°C° 0 mm 3 mps 755 mmHg 77%
08:00 +25°C° 0.1 mm 3 mps 756 mmHg 71%
09:00 +26°C° 0.1 mm 3 mps 756 mmHg 65%
10:00 +28°C° 0.1 mm 3 mps 756 mmHg 59%
11:00 +29°C° 0.1 mm 3 mps 756 mmHg 56%
12:00 +29°C° 0.1 mm 3 mps 755 mmHg 52%
13:00 +30°C° 0.1 mm 3 mps 755 mmHg 49%
14:00 +30°C° 0 mm 3 mps 755 mmHg 49%
15:00 +30°C° 0 mm 4 mps 755 mmHg 49%
16:00 +30°C° 0 mm 4 mps 755 mmHg 49%
17:00 +28°C° 0 mm 3 mps 755 mmHg 55%
18:00 +27°C° 0 mm 3 mps 755 mmHg 60%
19:00 +25°C° 0 mm 3 mps 755 mmHg 66%
20:00 +24°C° 0 mm 3 mps 756 mmHg 66%
21:00 +22°C° 0 mm 3 mps 756 mmHg 67%
22:00 +21°C° 0 mm 3 mps 756 mmHg 68%
23:00 +20°C° 0 mm 3 mps 756 mmHg 71%

Tomorrow, 12 August, Wednesday

Time Temperature Precipitation Wind Pressure Humidity
00:00 +20°C° 0 mm 3 mps 756 mmHg 74%
01:00 +19°C° 0 mm 3 mps 756 mmHg 77%
02:00 +19°C° 0 mm 3 mps 756 mmHg 78%
03:00 +18°C° 0 mm 3 mps 756 mmHg 80%
04:00 +18°C° 0 mm 3 mps 756 mmHg 81%
05:00 +18°C° 0 mm 3 mps 756 mmHg 78%
06:00 +19°C° 0 mm 3 mps 756 mmHg 75%
07:00 +20°C° 0 mm 3 mps 756 mmHg 72%
08:00 +21°C° 0 mm 3 mps 756 mmHg 66%
09:00 +24°C° 0 mm 3 mps 757 mmHg 61%
10:00 +26°C° 0 mm 3 mps 757 mmHg 55%
11:00 +26°C° 0 mm 3 mps 756 mmHg 50%
12:00 +27°C° 0 mm 3 mps 756 mmHg 46%
13:00 +28°C° 0 mm 4 mps 756 mmHg 42%
14:00 +28°C° 0 mm 3 mps 756 mmHg 42%
15:00 +28°C° 0 mm 3 mps 756 mmHg 41%
16:00 +28°C° 0 mm 3 mps 755 mmHg 41%
17:00 +26°C° 0 mm 3 mps 755 mmHg 48%
18:00 +25°C° 0 mm 3 mps 755 mmHg 55%
19:00 +22°C° 0 mm 3 mps 755 mmHg 62%
20:00 +21°C° 0 mm 3 mps 755 mmHg 63%
21:00 +20°C° 0 mm 3 mps 755 mmHg 64%
22:00 +19°C° 0 mm 3 mps 755 mmHg 65%
23:00 +19°C° 0 mm 3 mps 755 mmHg 67%

Day after tomorrow, 13 August, Thursday

Time Temperature Precipitation Wind Pressure Humidity
00:00 +19°C° 0 mm 3 mps 755 mmHg 68%
01:00 +18°C° 0 mm 3 mps 755 mmHg 69%
02:00 +18°C° 0 mm 3 mps 755 mmHg 70%
03:00 +17°C° 0 mm 3 mps 754 mmHg 72%
04:00 +17°C° 0 mm 3 mps 754 mmHg 73%
05:00 +18°C° 0 mm 3 mps 754 mmHg 71%
06:00 +19°C° 0 mm 3 mps 754 mmHg 69%
07:00 +20°C° 0 mm 3 mps 754 mmHg 66%
08:00 +22°C° 0 mm 4 mps 754 mmHg 61%
09:00 +23°C° 0 mm 4 mps 754 mmHg 55%
10:00 +26°C° 0 mm 4 mps 754 mmHg 50%
11:00 +27°C° 0 mm 4 mps 754 mmHg 47%
12:00 +28°C° 0 mm 4 mps 753 mmHg 44%
13:00 +29°C° 0 mm 4 mps 753 mmHg 41%
14:00 +29°C° 0 mm 4 mps 753 mmHg 41%
15:00 +29°C° 0 mm 4 mps 753 mmHg 41%
16:00 +29°C° 0 mm 3 mps 752 mmHg 41%
17:00 +27°C° 0 mm 3 mps 752 mmHg 47%
18:00 +25°C° 0 mm 3 mps 752 mmHg 53%
19:00 +24°C° 0 mm 3 mps 752 mmHg 59%
20:00 +22°C° 0 mm 3 mps 752 mmHg 61%
21:00 +21°C° 0 mm 3 mps 752 mmHg 62%
22:00 +20°C° 0 mm 3 mps 752 mmHg 63%
23:00 +20°C° 0 mm 3 mps 752 mmHg 65%

14 August, Friday

Time Temperature Precipitation Wind Pressure Humidity
00:00 +19°C° 0 mm 3 mps 752 mmHg 67%
01:00 +19°C° 0 mm 3 mps 752 mmHg 70%
02:00 +18°C° 0 mm 3 mps 752 mmHg 71%
03:00 +18°C° 0 mm 3 mps 752 mmHg 72%
04:00 +18°C° 0 mm 3 mps 751 mmHg 73%
05:00 +19°C° 0 mm 3 mps 751 mmHg 70%
06:00 +20°C° 0 mm 3 mps 751 mmHg 68%
07:00 +21°C° 0 mm 4 mps 751 mmHg 66%
08:00 +22°C° 0 mm 4 mps 751 mmHg 62%
09:00 +25°C° 0 mm 4 mps 751 mmHg 58%
10:00 +27°C° 0 mm 4 mps 751 mmHg 54%
11:00 +28°C° 0 mm 4 mps 751 mmHg 51%
12:00 +29°C° 0 mm 4 mps 750 mmHg 48%
13:00 +30°C° 0 mm 4 mps 750 mmHg 46%
14:00 +30°C° 0 mm 3 mps 750 mmHg 46%
15:00 +30°C° 0 mm 3 mps 750 mmHg 47%
16:00 +30°C° 0 mm 3 mps 749 mmHg 47%
17:00 +29°C° 0 mm 3 mps 749 mmHg 52%
18:00 +27°C° 0 mm 3 mps 749 mmHg 57%
19:00 +26°C° 0 mm 3 mps 749 mmHg 62%
20:00 +25°C° 0 mm 3 mps 749 mmHg 62%
21:00 +24°C° 0 mm 3 mps 750 mmHg 62%
22:00 +22°C° 0 mm 3 mps 750 mmHg 63%
23:00 +22°C° 0 mm 3 mps 750 mmHg 65%

15 August, Saturday

Time Temperature Precipitation Wind Pressure Humidity
00:00 +21°C° 0 mm 3 mps 750 mmHg 67%
01:00 +21°C° 0 mm 2 mps 750 mmHg 69%
02:00 +20°C° 0 mm 2 mps 750 mmHg 71%
03:00 +20°C° 0 mm 2 mps 750 mmHg 74%
04:00 +19°C° 0 mm 2 mps 750 mmHg 76%
05:00 +20°C° 0 mm 2 mps 750 mmHg 75%
06:00 +21°C° 0 mm 2 mps 750 mmHg 75%
07:00 +21°C° 0 mm 2 mps 750 mmHg 74%
08:00 +24°C° 0 mm 2 mps 750 mmHg 67%
09:00 +26°C° 0 mm 2 mps 750 mmHg 60%
10:00 +27°C° 0 mm 2 mps 751 mmHg 53%
11:00 +28°C° 0 mm 2 mps 750 mmHg 49%
12:00 +29°C° 0 mm 2 mps 750 mmHg 45%
13:00 +30°C° 0 mm 3 mps 750 mmHg 40%
14:00 +30°C° 0 mm 3 mps 750 mmHg 40%
15:00 +30°C° 0 mm 3 mps 750 mmHg 39%
16:00 +30°C° 0 mm 3 mps 750 mmHg 39%
17:00 +28°C° 0 mm 2 mps 750 mmHg 44%
18:00 +26°C° 0 mm 2 mps 750 mmHg 50%
19:00 +25°C° 0 mm 2 mps 750 mmHg 55%
20:00 +24°C° 0 mm 2 mps 751 mmHg 57%
21:00 +23°C° 0 mm 2 mps 751 mmHg 59%
22:00 +21°C° 0 mm 2 mps 751 mmHg 60%
23:00 +21°C° 0 mm 1 mps 751 mmHg 62%

16 August, Sunday

Time Temperature Precipitation Wind Pressure Humidity
00:00 +21°C° 0 mm 1 mps 752 mmHg 63%
01:00 +20°C° 0 mm 1 mps 752 mmHg 64%
02:00 +20°C° 0 mm 1 mps 752 mmHg 65%
03:00 +20°C° 0 mm 1 mps 752 mmHg 67%
04:00 +19°C° 0 mm 1 mps 752 mmHg 68%
05:00 +19°C° 0 mm 2 mps 752 mmHg 67%
06:00 +20°C° 0 mm 2 mps 752 mmHg 67%
07:00 +21°C° 0 mm 2 mps 752 mmHg 66%
08:00 +23°C° 0 mm 2 mps 752 mmHg 61%
09:00 +25°C° 0 mm 2 mps 752 mmHg 55%
10:00 +27°C° 0 mm 3 mps 753 mmHg 50%
11:00 +28°C° 0 mm 3 mps 752 mmHg 47%
12:00 +28°C° 0 mm 3 mps 752 mmHg 43%
13:00 +29°C° 0 mm 3 mps 752 mmHg 40%
14:00 +29°C° 0 mm 4 mps 752 mmHg 40%
15:00 +29°C° 0 mm 4 mps 752 mmHg 41%
16:00 +29°C° 0 mm 4 mps 751 mmHg 42%
17:00 +27°C° 0 mm 3 mps 751 mmHg 47%
18:00 +26°C° 0 mm 3 mps 751 mmHg 53%
19:00 +24°C° 0 mm 3 mps 751 mmHg 58%
20:00 +24°C° 0 mm 3 mps 752 mmHg 59%
21:00 +22°C° 0 mm 3 mps 752 mmHg 61%
22:00 +21°C° 0 mm 3 mps 752 mmHg 62%
23:00 +20°C° 0 mm 3 mps 752 mmHg 63%
Show more